Weather History for Luverne, MN

Change the Weather History Date:

Sunday, January 5, 2014

  Actual Average (KFSD) Record (KFSD)
Temperature  
Mean Temperature -6 °F 16 °F  
Max Temperature 1 °F 26 °F 62 °F (2012)
Min Temperature -14 °F 7 °F -29 °F (1924)
Degree Days  
Heating Degree Days 72 49  
Month to date heating degree days 245  
Since 1 July heating degree days 3378  
Cooling Degree Days 0 0  
Month to date cooling degree days 0  
Year to date cooling degree days 0  
Moisture  
Dew Point -17 °F    
Average Humidity 63    
Maximum Humidity 78    
Minimum Humidity 50    
Precipitation  
Precipitation 0.00 in 0.01 in 0.21 in (1910)
Month to date precipitation 0.09  
Year to date precipitation 0.09  
Snow  
Snow 0.00 in 0.20 in 3.90 in (1951)
Month to date snowfall 1.2  
Since 1 July snowfall 18.1  
Snow Depth -    
Sea Level Pressure  
Sea Level Pressure 30.38 in    
Wind  
Wind Speed 11 mph (NW)    
Max Wind Speed 29 mph    
Max Gust Speed 37 mph    
Visibility 10 miles    
Events      
T = Trace of Precipitation, MM = Missing Value Source: NWS Daily Summary

Daily Weather History Graph

Daily Weather History Graph

Search for Another Location

Airport:

Trip Planner

Search our weather history database for the weather conditions in past years. The results will help you decide how hot, cold, wet, or windy it might be!

Date:

Astronomy

Jan. 05, 2014 Rise Set
Actual Time 7:58 AM CST 5:02 PM CST
Civil Twilight 7:25 AM CST 5:35 PM CST
Nautical Twilight 6:49 AM CST 6:11 PM CST
Astronomical Twilight 6:15 AM CST 6:45 PM CST
Moon 10:30 AM CST (1/5) 10:42 PM CST (1/5)
Length of Visible Light 10h 09m
Length of Day
9h 04m
Waxing Crescent, 25% of the Moon is Illuminated
Jan 5
Waxing Crescent
Jan 7
First Quarter
Jan 15
Full
Jan 23
Last Quarter
Jan 30
New

Hourly Weather History & Observations

Time (CST) Temp. Windchill Dew Point Humidity Pressure Visibility Wind Dir Wind Speed Gust Speed Precip Events Conditions
12:15 AM 1.4 °F -9.9 °F -7.6 °F 66% 30.27 in 10.0 mi NNW 5.8 mph - N/A   Clear
12:34 AM -0.4 °F - -9.4 °F 66% 30.28 in 10.0 mi Calm Calm - N/A   Clear
12:54 AM -0.4 °F -8.3 °F -9.4 °F 66% 30.28 in 10.0 mi NNW 3.5 mph - N/A   Clear
1:15 AM -2.2 °F -14.2 °F -11.2 °F 66% 30.28 in 10.0 mi NNW 5.8 mph - N/A   Clear
1:34 AM -4.0 °F -17.8 °F -13.0 °F 65% 30.29 in 10.0 mi NNW 6.9 mph - N/A   Clear
1:54 AM -4.0 °F -16.3 °F -11.2 °F 71% 30.29 in 10.0 mi NNW 5.8 mph - N/A   Clear
2:15 AM -4.0 °F -20.2 °F -9.4 °F 78% 30.30 in 10.0 mi NNW 9.2 mph - N/A   Clear
2:34 AM -4.0 °F -19.0 °F -11.2 °F 71% 30.31 in 10.0 mi NNW 8.1 mph - N/A   Clear
2:54 AM -4.0 °F -20.2 °F -13.0 °F 65% 30.31 in 10.0 mi NNW 9.2 mph - N/A   Clear
3:15 AM -4.0 °F -17.8 °F -13.0 °F 65% 30.31 in 10.0 mi NNW 6.9 mph - N/A   Clear
3:34 AM -4.0 °F -16.3 °F -13.0 °F 65% 30.31 in 10.0 mi NNW 5.8 mph - N/A   Scattered Clouds
3:54 AM -4.0 °F -17.8 °F -13.0 °F 65% 30.31 in 10.0 mi NNW 6.9 mph - N/A   Scattered Clouds
4:15 AM -5.8 °F -22.4 °F -13.0 °F 71% 30.31 in 10.0 mi NNW 9.2 mph - N/A   Clear
4:34 AM -5.8 °F -23.4 °F -13.0 °F 71% 30.32 in 10.0 mi NNW 10.4 mph - N/A   Clear
4:54 AM -5.8 °F -19.9 °F -13.0 °F 71% 30.33 in 10.0 mi NNW 6.9 mph - N/A   Clear
5:14 AM -5.8 °F -21.2 °F -14.8 °F 65% 30.33 in 10.0 mi NNW 8.1 mph - N/A   Clear
5:34 AM -5.8 °F -21.2 °F -14.8 °F 65% 30.34 in 10.0 mi NNW 8.1 mph - N/A   Clear
5:55 AM -5.8 °F -19.9 °F -14.8 °F 65% 30.35 in 10.0 mi NNW 6.9 mph - N/A   Clear
6:14 AM -7.6 °F -22.1 °F -14.8 °F 71% 30.35 in 10.0 mi NNW 6.9 mph - N/A   Clear
6:34 AM -7.6 °F -23.4 °F -14.8 °F 71% 30.36 in 10.0 mi NW 8.1 mph - N/A   Clear
6:55 AM -7.6 °F -22.1 °F -16.6 °F 65% 30.36 in 10.0 mi NW 6.9 mph - N/A   Clear
7:14 AM -9.4 °F -26.8 °F -16.6 °F 71% 30.36 in 10.0 mi NNW 9.2 mph - N/A   Clear
7:34 AM -9.4 °F -24.3 °F -16.6 °F 71% 30.36 in 10.0 mi NW 6.9 mph - N/A   Clear
7:55 AM -9.4 °F -25.6 °F -16.6 °F 71% 30.37 in 10.0 mi NW 8.1 mph - N/A   Clear
8:14 AM -9.4 °F -20.9 °F -16.6 °F 71% 30.37 in 10.0 mi NW 4.6 mph - N/A   Clear
8:34 AM -9.4 °F -22.7 °F -16.6 °F 71% 30.38 in 10.0 mi NW 5.8 mph - N/A   Clear
8:55 AM -9.4 °F -20.9 °F -16.6 °F 71% 30.39 in 10.0 mi NW 4.6 mph - N/A   Clear
9:14 AM -9.4 °F -24.3 °F -16.6 °F 71% 30.40 in 10.0 mi WNW 6.9 mph - N/A   Clear
9:34 AM -7.6 °F -22.1 °F -14.8 °F 71% 30.40 in 10.0 mi WNW 6.9 mph - N/A   Clear
9:55 AM -7.6 °F -22.1 °F -14.8 °F 71% 30.40 in 10.0 mi WNW 6.9 mph - N/A   Clear
10:14 AM -5.8 °F -16.7 °F -14.8 °F 65% 30.41 in 10.0 mi WNW 4.6 mph - N/A   Clear
10:34 AM -4.0 °F -17.8 °F -13.0 °F 65% 30.41 in 10.0 mi NW 6.9 mph - N/A   Clear
10:55 AM -4.0 °F -19.0 °F -13.0 °F 65% 30.41 in 10.0 mi NNW 8.1 mph - N/A   Clear
11:14 AM -4.0 °F -17.8 °F -13.0 °F 65% 30.41 in 10.0 mi NW 6.9 mph - N/A   Clear
11:34 AM -2.2 °F -19.9 °F -11.2 °F 66% 30.40 in 10.0 mi NW 11.5 mph - N/A   Clear
11:55 AM -0.4 °F -21.2 °F -9.4 °F 66% 30.39 in 7.0 mi NNW 17.3 mph - N/A   Clear
12:14 PM -0.4 °F -20.5 °F -11.2 °F 60% 30.38 in 10.0 mi NNW 16.1 mph 23.0 mph N/A   Clear
12:35 PM -0.4 °F -21.2 °F -13.0 °F 55% 30.38 in 10.0 mi NNW 17.3 mph 21.9 mph N/A   Clear
12:54 PM -0.4 °F -21.7 °F -13.0 °F 55% 30.38 in 10.0 mi NNW 18.4 mph 24.2 mph N/A   Scattered Clouds
1:14 PM -0.4 °F -23.8 °F -14.8 °F 51% 30.37 in 10.0 mi NNW 23.0 mph 31.1 mph N/A   Clear
1:35 PM -0.4 °F -23.3 °F -14.8 °F 51% 30.37 in 10.0 mi NNW 21.9 mph 29.9 mph N/A   Clear
1:54 PM -0.4 °F -23.8 °F -14.8 °F 51% 30.37 in 10.0 mi NW 23.0 mph 28.8 mph N/A   Clear
2:14 PM -0.4 °F -25.6 °F -14.8 °F 51% 30.37 in 10.0 mi NW 27.6 mph 34.5 mph N/A   Clear
2:35 PM -2.2 °F -27.6 °F -16.6 °F 50% 30.38 in 10.0 mi NW 26.5 mph 36.8 mph N/A   Clear
2:54 PM -4.0 °F -30.4 °F -16.6 °F 55% 30.38 in 10.0 mi NW 27.6 mph 35.7 mph N/A   Clear
3:15 PM -4.0 °F -30.0 °F -16.6 °F 55% 30.39 in 7.0 mi NNW 26.5 mph 32.2 mph N/A   Clear
3:34 PM -4.0 °F -28.1 °F -18.4 °F 50% 30.39 in 7.0 mi NNW 21.9 mph 33.4 mph N/A   Clear
3:54 PM -4.0 °F -28.6 °F -18.4 °F 50% 30.40 in 10.0 mi NNW 23.0 mph 28.8 mph N/A   Clear
4:15 PM -5.8 °F -31.5 °F -18.4 °F 55% 30.41 in 10.0 mi NNW 24.2 mph 29.9 mph N/A   Clear
4:34 PM -5.8 °F -30.5 °F -16.6 °F 60% 30.42 in 7.0 mi NNW 21.9 mph 31.1 mph N/A   Mostly Cloudy
4:55 PM -7.6 °F -31.7 °F -16.6 °F 65% 30.42 in 2.0 mi NNW 19.6 mph 28.8 mph N/A   Haze
5:14 PM -7.6 °F -33.9 °F -18.4 °F 59% 30.43 in 7.0 mi NW 24.2 mph 28.8 mph N/A   Mostly Cloudy
5:34 PM -7.6 °F -35.7 °F -18.4 °F 59% 30.44 in 2.0 mi NW 28.8 mph 35.7 mph N/A   Haze
5:55 PM -9.4 °F -36.8 °F -22.0 °F 54% 30.45 in 10.0 mi NW 25.3 mph 32.2 mph N/A   Scattered Clouds
6:14 PM -9.4 °F -34.1 °F -22.0 °F 54% 30.45 in 10.0 mi NNW 19.6 mph 24.2 mph N/A   Scattered Clouds
6:34 PM -11.2 °F -35.8 °F -23.8 °F 54% 30.45 in 10.0 mi NW 18.4 mph 27.6 mph N/A   Scattered Clouds
6:55 PM -11.2 °F -38.7 °F -23.8 °F 54% 30.45 in 10.0 mi NW 24.2 mph 29.9 mph N/A   Scattered Clouds
7:14 PM -13.0 °F -36.8 °F -23.8 °F 59% 30.45 in 10.0 mi NW 16.1 mph 28.8 mph N/A   Scattered Clouds
7:34 PM -13.0 °F -38.8 °F -23.8 °F 59% 30.44 in 10.0 mi NW 19.6 mph 33.4 mph N/A   Scattered Clouds
7:54 PM -13.0 °F -38.8 °F -23.8 °F 59% 30.44 in 10.0 mi NW 19.6 mph 26.5 mph N/A   Clear
8:14 PM -13.0 °F -37.5 °F -22.0 °F 64% 30.44 in 10.0 mi NW 17.3 mph - N/A   Scattered Clouds
8:34 PM -13.0 °F -33.4 °F -22.0 °F 64% 30.44 in 10.0 mi NW 11.5 mph - N/A   Scattered Clouds
8:54 PM -14.8 °F -38.3 °F -23.8 °F 64% 30.44 in 10.0 mi NW 15.0 mph - N/A   Scattered Clouds
9:15 PM -14.8 °F -40.5 °F -23.8 °F 64% 30.42 in 10.0 mi NW 18.4 mph 25.3 mph N/A   Scattered Clouds
9:34 PM -13.0 °F -36.8 °F -23.8 °F 59% 30.43 in 10.0 mi NW 16.1 mph - N/A   Scattered Clouds
9:54 PM -13.0 °F -38.2 °F -23.8 °F 59% 30.42 in 10.0 mi NW 18.4 mph - N/A   Scattered Clouds
10:15 PM -13.0 °F -37.5 °F -23.8 °F 59% 30.42 in 10.0 mi NW 17.3 mph 27.6 mph N/A   Mostly Cloudy
10:34 PM -13.0 °F -38.8 °F -23.8 °F 59% 30.41 in 10.0 mi NW 19.6 mph 26.5 mph N/A   Scattered Clouds
10:54 PM -14.8 °F -40.5 °F -23.8 °F 64% 30.40 in 10.0 mi NW 18.4 mph 24.2 mph N/A   Scattered Clouds
11:14 PM -13.0 °F -37.5 °F -25.6 °F 53% 30.40 in 10.0 mi NW 17.3 mph 25.3 mph N/A   Clear
11:34 PM -14.8 °F -40.5 °F -25.6 °F 58% 30.39 in 10.0 mi NW 18.4 mph 25.3 mph N/A   Scattered Clouds
11:55 PM -14.8 °F -38.3 °F -25.6 °F 58% 30.39 in 10.0 mi NW 15.0 mph - N/A   Mostly Cloudy